Weather History for KELZ - November, 2014

Change the Weather History Date:

Friday, November 7, 2014

  Actual Average (KBFD) Record (KBFD)
Temperature  
Mean Temperature 32 °F 40 °F  
Max Temperature 37 °F 49 °F 69 °F (1975)
Min Temperature 28 °F 31 °F 14 °F (1967)
Degree Days  
Heating Degree Days 32 20  
Month to date heating degree days 135  
Since 1 July heating degree days 1128  
Cooling Degree Days 0 0  
Month to date cooling degree days 0  
Year to date cooling degree days 193  
Moisture  
Dew Point 29 °F    
Average Humidity 84    
Maximum Humidity 97    
Minimum Humidity 64    
Precipitation  
Precipitation 0.10 in 0.11 in 1.18 in (1963)
Month to date precipitation 0.81  
Year to date precipitation 38.11  
Sea Level Pressure  
Sea Level Pressure 29.85 in    
Wind  
Wind Speed 10 mph (NW)    
Max Wind Speed 22 mph    
Max Gust Speed 32 mph    
Visibility 8 miles    
Events Rain , Snow    
T = Trace of Precipitation, MM = Missing Value Source: NWS Daily Summary

Daily Weather History Graph

Daily Weather History Graph

Search for Another Location

Airport or City:

Trip Planner

Search our weather history database for the weather conditions in past years. The results will help you decide how hot, cold, wet, or windy it might be!

Date:

Astronomy

Nov. 07, 2014 Rise Set
Actual Time 6:52 AM EST 4:58 PM EST
Civil Twilight 6:22 AM EST 5:28 PM EST
Nautical Twilight 5:49 AM EST 6:01 PM EST
Astronomical Twilight 5:16 AM EST 6:34 PM EST
Moon 5:49 PM EST (11/7) 7:25 AM EST (11/7)
Length of Visible Light 11h 05m
Length of Day
10h 06m
Full, 99% of the Moon is Illuminated
Nov 7
Full
Nov 14
Last Quarter
Nov 22
New
Nov 29
First Quarter
Dec 6
Full

Hourly Weather History & Observations

Time (EST) Temp. Windchill Dew Point Humidity Pressure Visibility Wind Dir Wind Speed Gust Speed Precip Events Conditions
12:39 AM 37.0 °F 31.0 °F 36.0 °F 96% 29.71 in 10.0 mi NNW 8.1 mph - N/A   Overcast
12:56 AM 37.0 °F 32.4 °F 36.0 °F 96% 29.76 in 10.0 mi NW 5.8 mph - N/A   Overcast
1:05 AM 37.0 °F 31.6 °F 36.0 °F 96% 29.72 in 10.0 mi NW 6.9 mph - N/A   Overcast
1:56 AM 37.9 °F 34.4 °F 36.0 °F 93% 29.76 in 2.5 mi NW 4.6 mph - N/A   Overcast
2:14 AM 37.9 °F - 36.0 °F 93% 29.72 in 1.5 mi Calm Calm - N/A   Overcast
2:41 AM 37.9 °F 35.5 °F 36.0 °F 93% 29.71 in 0.8 mi NW 3.5 mph - N/A   Mist
2:56 AM 37.9 °F - 37.0 °F 97% 29.75 in 0.8 mi Calm Calm - N/A   Mist
3:08 AM 37.9 °F 35.5 °F 37.0 °F 97% 29.71 in 1.2 mi WNW 3.5 mph - N/A   Overcast
3:14 AM 37.9 °F 35.5 °F 36.0 °F 93% 29.70 in 3.0 mi West 3.5 mph - 0.00 in Rain Light Rain
3:56 AM 37.9 °F 31.5 °F 36.0 °F 93% 29.74 in 9.0 mi WNW 9.2 mph - 0.02 in Rain Light Rain
4:08 AM 37.0 °F 29.8 °F 36.0 °F 96% 29.70 in 10.0 mi WNW 10.4 mph - 0.01 in Rain Light Rain
4:15 AM 37.0 °F 30.4 °F 35.1 °F 93% 29.70 in 10.0 mi WNW 9.2 mph - 0.01 in Rain Light Rain
4:56 AM 36.0 °F 28.0 °F 34.0 °F 93% 29.75 in 10.0 mi WNW 11.5 mph - 0.03 in Rain Light Rain
5:56 AM 35.1 °F 26.4 °F 32.0 °F 89% 29.78 in 9.0 mi NW 12.7 mph - 0.03 in Snow Light Snow
6:56 AM 35.1 °F 26.9 °F 32.0 °F 89% 29.81 in 10.0 mi NW 11.5 mph - 0.00 in Rain Light Rain
7:56 AM 34.0 °F 23.8 °F 30.9 °F 89% 29.83 in 10.0 mi NW 16.1 mph 24.2 mph 0.00 in Rain Light Rain
8:25 AM 34.0 °F 23.8 °F 30.0 °F 85% 29.78 in 4.0 mi NW 16.1 mph 26.5 mph 0.00 in Snow Light Snow
8:43 AM 34.0 °F 23.8 °F 30.0 °F 85% 29.78 in 10.0 mi NW 16.1 mph 24.2 mph 0.00 in   Overcast
8:56 AM 34.0 °F 24.2 °F 30.0 °F 85% 29.84 in 8.0 mi NW 15.0 mph - 0.00 in Snow Light Snow
9:07 AM 34.0 °F 22.4 °F 30.0 °F 85% 29.79 in 8.0 mi NW 20.7 mph 25.3 mph 0.00 in Snow Light Snow
9:29 AM 34.0 °F 23.4 °F 30.0 °F 85% 29.80 in 7.0 mi NW 17.3 mph 32.2 mph 0.00 in Snow Light Snow
9:56 AM 33.1 °F 22.2 °F 30.0 °F 89% 29.86 in 3.0 mi WNW 17.3 mph 27.6 mph 0.00 in Snow Light Snow
10:56 AM 34.0 °F 22.7 °F 28.9 °F 82% 29.88 in 9.0 mi NW 19.6 mph 27.6 mph 0.00 in Snow Light Snow
11:11 AM 34.0 °F 22.1 °F 30.0 °F 85% 29.83 in 9.0 mi NW 21.9 mph 32.2 mph 0.00 in Snow Light Snow
11:56 AM 34.0 °F 24.6 °F 28.9 °F 82% 29.89 in 9.0 mi NW 13.8 mph 26.5 mph 0.00 in Snow Light Snow
12:03 PM 34.0 °F 22.4 °F 28.0 °F 79% 29.84 in 9.0 mi NW 20.7 mph 26.5 mph 0.00 in Snow Light Snow
12:56 PM 34.0 °F 24.2 °F 27.0 °F 75% 29.90 in 9.0 mi NW 15.0 mph 28.8 mph 0.00 in Snow Light Snow
1:24 PM 32.0 °F 22.1 °F 27.0 °F 82% 29.85 in 2.5 mi NW 13.8 mph - 0.02 in Snow Light Snow
1:30 PM 33.1 °F 23.9 °F 27.0 °F 78% 29.85 in 9.0 mi NW 12.7 mph - 0.02 in Snow Light Snow
1:48 PM 32.0 °F 22.1 °F 26.1 °F 79% 29.85 in 9.0 mi NNW 13.8 mph 26.5 mph 0.02 in Snow Light Snow
1:56 PM 32.0 °F 22.1 °F 26.1 °F 79% 29.91 in 9.0 mi NNW 13.8 mph - 0.02 in Snow Light Snow
2:56 PM 34.0 °F 25.0 °F 23.0 °F 64% 29.92 in 9.0 mi NNW 12.7 mph 25.3 mph 0.00 in Snow Light Snow
3:56 PM 34.0 °F 23.8 °F 24.1 °F 67% 29.95 in 9.0 mi NW 16.1 mph 20.7 mph 0.00 in Snow Light Snow
4:13 PM 33.1 °F 22.2 °F 24.1 °F 70% 29.90 in 9.0 mi NW 17.3 mph 24.2 mph 0.00 in Snow Light Snow
4:23 PM 32.0 °F 21.2 °F 23.0 °F 69% 29.91 in 9.0 mi WNW 16.1 mph - 0.00 in Snow Light Snow
4:56 PM 30.9 °F 21.2 °F 23.0 °F 72% 29.98 in 9.0 mi WNW 12.7 mph - 0.00 in Snow Light Snow
5:23 PM 30.0 °F 21.7 °F 23.0 °F 75% 29.93 in 9.0 mi NW 9.2 mph - 0.00 in Snow Light Snow
5:43 PM 30.0 °F 21.1 °F 24.1 °F 79% 29.94 in 9.0 mi NW 10.4 mph - 0.00 in Snow Light Snow
5:56 PM 30.0 °F 21.1 °F 24.1 °F 79% 30.00 in 9.0 mi NW 10.4 mph - 0.00 in Snow Light Snow
6:11 PM 30.0 °F 21.1 °F 24.1 °F 79% 29.94 in 9.0 mi NW 10.4 mph - 0.00 in Snow Light Snow
6:56 PM 28.9 °F 19.8 °F 24.1 °F 82% 30.01 in 9.0 mi WNW 10.4 mph - 0.00 in Snow Light Snow
7:56 PM 30.0 °F 21.7 °F 25.0 °F 82% 30.01 in 9.0 mi NW 9.2 mph - 0.00 in Snow Light Snow
8:56 PM 28.9 °F 21.9 °F 23.0 °F 78% 30.01 in 9.0 mi NW 6.9 mph - 0.00 in Snow Light Snow
9:56 PM 28.9 °F 21.1 °F 23.0 °F 78% 30.02 in 10.0 mi WNW 8.1 mph - 0.00 in   Overcast
10:56 PM 28.0 °F 21.7 °F 21.9 °F 78% 30.01 in 10.0 mi WNW 5.8 mph - N/A   Overcast
11:56 PM 28.0 °F 24.2 °F 21.0 °F 75% 30.00 in 10.0 mi WSW 3.5 mph - N/A   Partly Cloudy